DLH3HT EKCH-EDDF

Flight info

Callsign DLH3HT
Flight time 1h 8m
Altitude 36000
Route NEXEN T503 GIMRU DCT MICOS DCT RIMET/N0440F310 T157 KOKEB/N0393F230 T157 KERAX KERAX5A
Aircraft A321/M-SDE3FGHIRWY/LB1

Departure

Time 2026-05-04 18:55
Airport Copenhagen Kastrup Airport (EKCH)

Arrival

Time 2026-05-04 20:04
Airport Frankfurt Main Airport (EDDF)
Time Latitude Longitude Altitude Speed Heading
2026-05-04 18:02 55.62788 12.64150 24 ft 0 kts 123°
2026-05-04 18:41 55.62796 12.64128 24 ft 4 kts 123°
2026-05-04 18:41 55.62810 12.64090 26 ft 2 kts 123°
2026-05-04 18:41 55.62820 12.64056 26 ft 4 kts 104°
2026-05-04 18:42 55.62823 12.64009 24 ft 4 kts 93°
2026-05-04 18:42 55.62826 12.63972 24 ft 4 kts 104°
2026-05-04 18:42 55.62833 12.63926 24 ft 4 kts 104°
2026-05-04 18:42 55.62839 12.63880 25 ft 3 kts 104°
2026-05-04 18:43 55.62840 12.63874 24 ft 0 kts 104°
2026-05-04 18:45 55.62838 12.63890 24 ft 2 kts 105°
2026-05-04 18:46 55.62828 12.63938 25 ft 6 kts 118°
2026-05-04 18:46 55.62782 12.63956 26 ft 8 kts 194°
2026-05-04 18:46 55.62730 12.63902 24 ft 10 kts 212°
2026-05-04 18:46 55.62654 12.63866 26 ft 13 kts 145°
2026-05-04 18:47 55.62600 12.64000 24 ft 14 kts 122°
2026-05-04 18:47 55.62545 12.64150 24 ft 15 kts 123°
2026-05-04 18:47 55.62484 12.64309 24 ft 16 kts 128°
2026-05-04 18:47 55.62417 12.64449 25 ft 13 kts 150°
2026-05-04 18:48 55.62371 12.64437 24 ft 3 kts 195°
2026-05-04 18:48 55.62355 12.64430 24 ft 0 kts 194°
2026-05-04 18:50 55.62349 12.64427 23 ft 2 kts 194°
2026-05-04 18:51 55.62313 12.64411 23 ft 10 kts 194°
2026-05-04 18:51 55.62227 12.64366 21 ft 16 kts 204°
2026-05-04 18:51 55.62124 12.64281 23 ft 16 kts 205°
2026-05-04 18:51 55.62019 12.64192 24 ft 17 kts 205°
2026-05-04 18:52 55.61912 12.64103 25 ft 13 kts 205°
2026-05-04 18:52 55.61821 12.64073 24 ft 12 kts 176°
2026-05-04 18:52 55.61760 12.64081 24 ft 6 kts 176°
2026-05-04 18:52 55.61756 12.64081 24 ft 0 kts 176°
2026-05-04 18:53 55.61729 12.64084 25 ft 7 kts 176°
2026-05-04 18:53 55.61663 12.64094 27 ft 10 kts 174°
2026-05-04 18:54 55.61625 12.64068 27 ft 1 kts 221°
2026-05-04 18:54 55.61616 12.64055 27 ft 3 kts 221°
2026-05-04 18:54 55.61526 12.63914 27 ft 49 kts 221°
2026-05-04 18:54 55.61078 12.63223 27 ft 120 kts 221°
2026-05-04 18:55 55.60299 12.62021 36 ft 173 kts 222°
2026-05-04 18:55 55.58522 12.59359 1483 ft 168 kts 223°
2026-05-04 18:55 55.57616 12.57964 1933 ft 182 kts 225°
2026-05-04 18:56 55.56595 12.56407 2192 ft 205 kts 221°
2026-05-04 18:56 55.55384 12.54814 2424 ft 229 kts 218°
2026-05-04 18:56 55.54014 12.53119 2745 ft 251 kts 217°
2026-05-04 18:56 55.52545 12.51340 3438 ft 258 kts 217°
2026-05-04 18:57 55.51054 12.49545 4262 ft 260 kts 217°
2026-05-04 18:57 55.49559 12.47738 5093 ft 261 kts 217°
2026-05-04 18:57 55.48060 12.45917 5916 ft 262 kts 218°
2026-05-04 18:57 55.46557 12.44086 6702 ft 264 kts 218°
2026-05-04 18:58 55.45041 12.42239 7445 ft 266 kts 218°
2026-05-04 18:58 55.43515 12.40375 8173 ft 268 kts 218°
2026-05-04 18:58 55.41994 12.38517 8922 ft 271 kts 218°
2026-05-04 18:58 55.40439 12.36621 9645 ft 274 kts 218°
2026-05-04 18:59 55.38859 12.34696 10221 ft 283 kts 218°
2026-05-04 18:59 55.37179 12.32646 10345 ft 305 kts 218°
2026-05-04 18:59 55.35377 12.30451 10525 ft 324 kts 218°
2026-05-04 18:59 55.33499 12.28175 11011 ft 331 kts 218°
2026-05-04 19:00 55.31596 12.25872 11631 ft 334 kts 218°
2026-05-04 19:00 55.29680 12.23553 12277 ft 336 kts 218°
2026-05-04 19:00 55.27748 12.21218 12933 ft 338 kts 218°
2026-05-04 19:00 55.25802 12.18872 13559 ft 341 kts 218°
2026-05-04 19:01 55.23837 12.16515 14143 ft 344 kts 218°
2026-05-04 19:01 55.21937 12.14238 14668 ft 346 kts 218°
2026-05-04 19:01 55.19941 12.11838 15214 ft 349 kts 218°
2026-05-04 19:01 55.18076 12.09521 15702 ft 351 kts 219°
2026-05-04 19:02 55.16091 12.06980 16245 ft 354 kts 219°
2026-05-04 19:02 55.14105 12.04405 16780 ft 356 kts 220°
2026-05-04 19:02 55.12108 12.01808 17308 ft 359 kts 220°
2026-05-04 19:02 55.10097 11.99208 17833 ft 362 kts 219°
2026-05-04 19:03 55.08050 11.96582 18331 ft 365 kts 219°
2026-05-04 19:03 55.05994 11.93962 18791 ft 368 kts 219°
2026-05-04 19:03 55.03921 11.91330 19239 ft 370 kts 219°
2026-05-04 19:03 55.01837 11.88685 19685 ft 372 kts 219°
2026-05-04 19:04 54.99734 11.86021 20130 ft 374 kts 219°
2026-05-04 19:04 54.97622 11.83350 20583 ft 377 kts 219°
2026-05-04 19:04 54.95491 11.80659 21016 ft 379 kts 219°
2026-05-04 19:04 54.93349 11.77959 21440 ft 380 kts 219°
2026-05-04 19:05 54.91210 11.75262 21936 ft 381 kts 219°
2026-05-04 19:05 54.89059 11.72544 22391 ft 383 kts 220°
2026-05-04 19:05 54.86905 11.69827 22827 ft 384 kts 220°
2026-05-04 19:05 54.84730 11.67093 23261 ft 386 kts 220°
2026-05-04 19:06 54.82545 11.64354 23659 ft 388 kts 220°
2026-05-04 19:06 54.80350 11.61606 24033 ft 390 kts 220°
2026-05-04 19:06 54.78893 11.59783 24294 ft 390 kts 220°
2026-05-04 19:06 54.76693 11.57031 24678 ft 391 kts 220°
2026-05-04 19:07 54.74491 11.54278 25084 ft 391 kts 220°
2026-05-04 19:07 54.72279 11.51523 25484 ft 392 kts 220°
2026-05-04 19:07 54.70065 11.48770 25871 ft 391 kts 221°
2026-05-04 19:07 54.67139 11.45141 26419 ft 391 kts 221°
2026-05-04 19:08 54.65650 11.43299 26678 ft 391 kts 221°
2026-05-04 19:08 54.63436 11.40560 27049 ft 392 kts 221°
2026-05-04 19:08 54.61218 11.37815 27413 ft 393 kts 221°
2026-05-04 19:08 54.58993 11.35066 27789 ft 394 kts 220°
2026-05-04 19:09 54.56765 11.32314 28120 ft 395 kts 220°
2026-05-04 19:09 54.54530 11.29561 28476 ft 396 kts 220°
2026-05-04 19:09 54.52283 11.26816 28818 ft 397 kts 220°
2026-05-04 19:09 54.50026 11.24069 29151 ft 398 kts 220°
2026-05-04 19:10 54.47760 11.21320 29418 ft 399 kts 220°
2026-05-04 19:10 54.46256 11.19497 29581 ft 400 kts 219°
2026-05-04 19:10 54.43232 11.15835 29926 ft 403 kts 219°
2026-05-04 19:10 54.40941 11.13060 30165 ft 404 kts 219°
2026-05-04 19:11 54.38643 11.10279 30378 ft 405 kts 219°
2026-05-04 19:11 54.36340 11.07498 30650 ft 405 kts 219°
2026-05-04 19:11 54.34037 11.04720 30904 ft 405 kts 219°
2026-05-04 19:11 54.31632 11.02168 31140 ft 410 kts 212°
2026-05-04 19:12 54.28963 11.00326 31379 ft 418 kts 202°
2026-05-04 19:12 54.23176 10.98456 31817 ft 425 kts 195°
2026-05-04 19:12 54.20251 10.97633 32052 ft 426 kts 195°
2026-05-04 19:13 54.17330 10.96805 32288 ft 426 kts 195°
2026-05-04 19:13 54.14400 10.95974 32523 ft 427 kts 195°
2026-05-04 19:13 54.11466 10.95144 32763 ft 427 kts 195°
2026-05-04 19:13 54.08531 10.94316 33001 ft 428 kts 195°
2026-05-04 19:14 54.05593 10.93490 33239 ft 428 kts 195°
2026-05-04 19:14 54.02653 10.92671 33474 ft 428 kts 195°
2026-05-04 19:14 53.99708 10.91852 33691 ft 429 kts 195°
2026-05-04 19:14 53.96760 10.91030 33916 ft 429 kts 195°
2026-05-04 19:15 53.93809 10.90206 34113 ft 430 kts 195°
2026-05-04 19:15 53.90855 10.89377 34308 ft 430 kts 195°
2026-05-04 19:15 53.87902 10.88550 34502 ft 431 kts 195°
2026-05-04 19:15 53.84943 10.87729 34701 ft 431 kts 195°
2026-05-04 19:16 53.81978 10.86911 34893 ft 431 kts 195°
2026-05-04 19:16 53.79019 10.86095 35085 ft 431 kts 195°
2026-05-04 19:16 53.76048 10.85277 35275 ft 432 kts 194°
2026-05-04 19:16 53.73090 10.84458 35449 ft 431 kts 194°
2026-05-04 19:17 53.70164 10.83646 35660 ft 431 kts 194°
2026-05-04 19:17 53.67165 10.82818 35864 ft 431 kts 194°
2026-05-04 19:17 53.64244 10.82015 35958 ft 431 kts 194°
2026-05-04 19:18 53.58326 10.80403 35974 ft 430 kts 194°
2026-05-04 19:18 53.52412 10.78789 35966 ft 430 kts 194°
2026-05-04 19:19 53.46520 10.77180 35966 ft 428 kts 194°
2026-05-04 19:19 53.40650 10.75584 35961 ft 426 kts 194°
2026-05-04 19:20 53.34795 10.73990 35970 ft 427 kts 194°
2026-05-04 19:20 53.28931 10.72409 35976 ft 427 kts 194°
2026-05-04 19:21 53.23065 10.70835 35964 ft 427 kts 193°
2026-05-04 19:21 53.17207 10.69274 35985 ft 426 kts 194°
2026-05-04 19:22 53.11360 10.67703 35990 ft 425 kts 194°
2026-05-04 19:22 53.05529 10.66131 35989 ft 424 kts 194°
2026-05-04 19:23 52.99807 10.64599 35986 ft 424 kts 194°
2026-05-04 19:23 52.93979 10.63044 35985 ft 424 kts 194°
2026-05-04 19:24 52.88161 10.61509 35982 ft 423 kts 193°
2026-05-04 19:24 52.82343 10.59975 35978 ft 423 kts 194°
2026-05-04 19:25 52.76527 10.58438 35969 ft 423 kts 193°
2026-05-04 19:25 52.70750 10.56922 35977 ft 423 kts 193°
2026-05-04 19:26 52.64938 10.55396 35981 ft 423 kts 193°
2026-05-04 19:26 52.59125 10.53875 35985 ft 423 kts 193°
2026-05-04 19:27 52.53312 10.52362 35971 ft 423 kts 193°
2026-05-04 19:27 52.47506 10.50848 35968 ft 423 kts 193°
2026-05-04 19:28 52.41694 10.49333 35976 ft 423 kts 193°
2026-05-04 19:28 52.35886 10.47831 35984 ft 423 kts 193°
2026-05-04 19:29 52.30060 10.46341 35979 ft 423 kts 193°
2026-05-04 19:29 52.24370 10.44892 35827 ft 404 kts 193°
2026-05-04 19:29 52.21612 10.44183 35546 ft 399 kts 193°
2026-05-04 19:30 52.18871 10.43473 35274 ft 398 kts 193°
2026-05-04 19:30 52.16140 10.42762 35003 ft 397 kts 194°
2026-05-04 19:30 52.13416 10.42054 34740 ft 396 kts 194°
2026-05-04 19:30 52.10697 10.41355 34483 ft 396 kts 194°
2026-05-04 19:31 52.07976 10.40666 34217 ft 395 kts 194°
2026-05-04 19:31 52.05265 10.39984 33930 ft 395 kts 194°
2026-05-04 19:31 52.02550 10.39300 33622 ft 394 kts 194°
2026-05-04 19:31 51.99844 10.38612 33322 ft 394 kts 194°
2026-05-04 19:32 51.97165 10.37924 33029 ft 395 kts 194°
2026-05-04 19:32 51.94445 10.37224 32709 ft 398 kts 194°
2026-05-04 19:32 51.91666 10.36510 32295 ft 409 kts 194°
2026-05-04 19:32 51.88824 10.35785 31199 ft 419 kts 193°
2026-05-04 19:33 51.85918 10.35048 30232 ft 425 kts 193°
2026-05-04 19:33 51.82999 10.34314 29620 ft 421 kts 193°
2026-05-04 19:33 51.80160 10.33609 29488 ft 405 kts 193°
2026-05-04 19:33 51.77431 10.32934 29387 ft 390 kts 193°
2026-05-04 19:34 51.74797 10.32280 29288 ft 375 kts 194°
2026-05-04 19:34 51.72262 10.31650 29148 ft 365 kts 194°
2026-05-04 19:34 51.69690 10.30997 28869 ft 382 kts 194°
2026-05-04 19:34 51.67010 10.30309 28596 ft 396 kts 193°
2026-05-04 19:35 51.64277 10.29611 28323 ft 399 kts 193°
2026-05-04 19:35 51.61531 10.28915 28056 ft 399 kts 193°
2026-05-04 19:35 51.58789 10.28225 27772 ft 398 kts 193°
2026-05-04 19:35 51.56054 10.27542 27507 ft 397 kts 192°
2026-05-04 19:36 51.53328 10.26866 27241 ft 396 kts 192°
2026-05-04 19:36 51.50611 10.26197 26985 ft 394 kts 192°
2026-05-04 19:36 51.47911 10.25534 26733 ft 390 kts 192°
2026-05-04 19:36 51.45244 10.24879 26471 ft 387 kts 192°
2026-05-04 19:37 51.42588 10.24226 26222 ft 385 kts 192°
2026-05-04 19:37 51.39945 10.23572 25974 ft 384 kts 192°
2026-05-04 19:37 51.37332 10.22927 25639 ft 379 kts 192°
2026-05-04 19:37 51.34714 10.22185 25218 ft 381 kts 199°
2026-05-04 19:38 51.32275 10.20616 24972 ft 378 kts 207°
2026-05-04 19:38 51.29890 10.18843 24736 ft 378 kts 207°
2026-05-04 19:38 51.27507 10.17062 24497 ft 377 kts 207°
2026-05-04 19:38 51.25138 10.15287 24265 ft 376 kts 207°
2026-05-04 19:39 51.22765 10.13508 24063 ft 375 kts 207°
2026-05-04 19:39 51.20398 10.11735 23976 ft 374 kts 207°
2026-05-04 19:39 51.18044 10.09976 23996 ft 375 kts 207°
2026-05-04 19:39 51.15677 10.08214 23995 ft 375 kts 207°
2026-05-04 19:40 51.13312 10.06455 23883 ft 377 kts 207°
2026-05-04 19:40 51.10945 10.04694 23461 ft 373 kts 206°
2026-05-04 19:40 51.08599 10.02950 23040 ft 371 kts 206°
2026-05-04 19:40 51.06273 10.01219 22638 ft 369 kts 206°
2026-05-04 19:41 51.03963 9.99501 22230 ft 367 kts 206°
2026-05-04 19:41 51.01642 9.97777 21825 ft 365 kts 206°
2026-05-04 19:41 50.99345 9.96074 21396 ft 363 kts 206°
2026-05-04 19:41 50.97082 9.94400 20992 ft 362 kts 206°
2026-05-04 19:42 50.94789 9.92707 20545 ft 359 kts 206°
2026-05-04 19:42 50.92527 9.91040 20116 ft 357 kts 206°
2026-05-04 19:42 50.90278 9.89381 19670 ft 355 kts 206°
2026-05-04 19:42 50.88053 9.87741 19242 ft 352 kts 206°
2026-05-04 19:43 50.85835 9.86112 18804 ft 350 kts 206°
2026-05-04 19:43 50.83661 9.84517 18376 ft 348 kts 206°
2026-05-04 19:43 50.81471 9.82912 17892 ft 345 kts 206°
2026-05-04 19:43 50.79302 9.81323 17464 ft 343 kts 206°
2026-05-04 19:44 50.77181 9.79631 17105 ft 340 kts 214°
2026-05-04 19:44 50.75387 9.77195 16847 ft 339 kts 224°
2026-05-04 19:44 50.73699 9.74600 16453 ft 338 kts 224°
2026-05-04 19:44 50.72027 9.72014 16093 ft 336 kts 224°
2026-05-04 19:45 50.70358 9.69440 15739 ft 334 kts 224°
2026-05-04 19:45 50.68700 9.66891 15393 ft 333 kts 224°
2026-05-04 19:45 50.67044 9.64345 15049 ft 331 kts 224°
2026-05-04 19:45 50.65398 9.61812 14706 ft 330 kts 224°
2026-05-04 19:46 50.63758 9.59294 14387 ft 328 kts 224°
2026-05-04 19:46 50.62122 9.56788 14041 ft 327 kts 224°
2026-05-04 19:46 50.60504 9.54315 13698 ft 321 kts 224°
2026-05-04 19:46 50.58922 9.51895 13386 ft 312 kts 224°
2026-05-04 19:47 50.57404 9.49571 13249 ft 298 kts 224°
2026-05-04 19:47 50.55950 9.47345 13033 ft 288 kts 224°
2026-05-04 19:47 50.54525 9.45167 12661 ft 284 kts 224°
2026-05-04 19:47 50.53116 9.43017 12265 ft 281 kts 223°
2026-05-04 19:48 50.51716 9.40883 11859 ft 279 kts 223°
2026-05-04 19:48 50.50329 9.38774 11476 ft 277 kts 223°
2026-05-04 19:48 50.48959 9.36693 11224 ft 269 kts 223°
2026-05-04 19:48 50.47644 9.34694 11097 ft 258 kts 223°
2026-05-04 19:49 50.46382 9.32777 10973 ft 247 kts 223°
2026-05-04 19:49 50.45163 9.30930 10759 ft 241 kts 223°
2026-05-04 19:49 50.43963 9.29112 10467 ft 239 kts 223°
2026-05-04 19:49 50.42793 9.27272 10174 ft 238 kts 227°
2026-05-04 19:50 50.41764 9.25249 9862 ft 237 kts 233°
2026-05-04 19:50 50.40912 9.23077 9534 ft 237 kts 240°
2026-05-04 19:50 50.40220 9.20737 9185 ft 237 kts 246°
2026-05-04 19:50 50.39655 9.18306 8838 ft 237 kts 247°
2026-05-04 19:51 50.39095 9.15884 8493 ft 236 kts 247°
2026-05-04 19:51 50.38536 9.13474 8158 ft 235 kts 247°
2026-05-04 19:51 50.37979 9.11069 7851 ft 234 kts 247°
2026-05-04 19:51 50.37424 9.08673 7611 ft 234 kts 247°
2026-05-04 19:52 50.36869 9.06278 7360 ft 234 kts 248°
2026-05-04 19:52 50.36313 9.03888 7118 ft 233 kts 247°
2026-05-04 19:52 50.35757 9.01503 6877 ft 233 kts 248°
2026-05-04 19:52 50.35201 8.99123 6633 ft 233 kts 247°
2026-05-04 19:53 50.34645 8.96750 6388 ft 232 kts 247°
2026-05-04 19:53 50.34076 8.94396 6130 ft 231 kts 242°
2026-05-04 19:53 50.33071 8.92521 5878 ft 226 kts 211°
2026-05-04 19:53 50.31583 8.91833 5618 ft 227 kts 179°
2026-05-04 19:54 50.30082 8.92555 5357 ft 231 kts 146°
2026-05-04 19:54 50.29061 8.94465 5126 ft 234 kts 113°
2026-05-04 19:54 50.28561 8.96905 5021 ft 237 kts 107°
2026-05-04 19:54 50.27941 8.99263 5023 ft 235 kts 127°
2026-05-04 19:55 50.26908 9.01250 5028 ft 235 kts 133°
2026-05-04 19:55 50.25812 9.03144 5027 ft 235 kts 134°
2026-05-04 19:55 50.24710 9.05027 5027 ft 235 kts 134°
2026-05-04 19:55 50.23427 9.06546 5024 ft 232 kts 161°
2026-05-04 19:56 50.22389 9.06864 5024 ft 230 kts 182°
2026-05-04 19:56 50.20873 9.06176 5025 ft 230 kts 214°
2026-05-04 19:56 50.19257 9.04015 5025 ft 232 kts 223°
2026-05-04 19:56 50.18100 9.02250 5023 ft 232 kts 224°
2026-05-04 19:57 50.17323 9.01051 5024 ft 232 kts 224°
2026-05-04 19:57 50.16174 8.99276 5028 ft 233 kts 224°
2026-05-04 19:57 50.15070 8.97434 5022 ft 233 kts 236°
2026-05-04 19:57 50.14415 8.95141 5025 ft 228 kts 249°
2026-05-04 19:58 50.13919 8.92896 5031 ft 209 kts 249°
2026-05-04 19:58 50.13441 8.90806 5037 ft 203 kts 249°
2026-05-04 19:58 50.12959 8.88747 5039 ft 202 kts 248°
2026-05-04 19:58 50.12478 8.86696 5002 ft 202 kts 248°
2026-05-04 19:59 50.12000 8.84666 4810 ft 201 kts 248°
2026-05-04 19:59 50.11519 8.82626 4535 ft 199 kts 249°
2026-05-04 19:59 50.11052 8.80642 4253 ft 192 kts 249°
2026-05-04 19:59 50.10598 8.78717 3986 ft 186 kts 249°
2026-05-04 20:00 50.10158 8.76854 3753 ft 179 kts 249°
2026-05-04 20:00 50.09730 8.75041 3480 ft 178 kts 249°
2026-05-04 20:00 50.09304 8.73242 3225 ft 177 kts 250°
2026-05-04 20:00 50.08879 8.71448 2973 ft 177 kts 250°
2026-05-04 20:01 50.08454 8.69651 2725 ft 176 kts 251°
2026-05-04 20:01 50.08029 8.67862 2481 ft 176 kts 251°
2026-05-04 20:01 50.07605 8.66074 2223 ft 173 kts 251°
2026-05-04 20:01 50.07203 8.64383 1980 ft 161 kts 251°
2026-05-04 20:02 50.06821 8.62777 1756 ft 156 kts 252°
2026-05-04 20:02 50.06448 8.61206 1535 ft 154 kts 252°
2026-05-04 20:02 50.06079 8.59659 1315 ft 153 kts 251°
2026-05-04 20:02 50.05710 8.58109 1092 ft 151 kts 251°
2026-05-04 20:03 50.05346 8.56578 864 ft 150 kts 251°
2026-05-04 20:03 50.04984 8.55061 657 ft 149 kts 250°
2026-05-04 20:03 50.04624 8.53551 440 ft 148 kts 250°
2026-05-04 20:03 50.04280 8.52088 338 ft 133 kts 250°
2026-05-04 20:04 50.04059 8.51175 328 ft 46 kts 249°
2026-05-04 20:04 50.03968 8.50791 325 ft 35 kts 249°
2026-05-04 20:04 50.03884 8.50493 321 ft 27 kts 237°
2026-05-04 20:04 50.03771 8.50285 319 ft 24 kts 222°
2026-05-04 20:05 50.03663 8.50176 322 ft 12 kts 181°
2026-05-04 20:05 50.03624 8.50244 324 ft 7 kts 95°
2026-05-04 20:05 50.03630 8.50290 325 ft 3 kts 73°
2026-05-04 20:05 50.03636 8.50319 323 ft 4 kts 71°
2026-05-04 20:06 50.03650 8.50378 324 ft 8 kts 70°
2026-05-04 20:06 50.03675 8.50483 326 ft 13 kts 69°
2026-05-04 20:06 50.03712 8.50639 328 ft 18 kts 70°
2026-05-04 20:06 50.03759 8.50836 331 ft 21 kts 70°
2026-05-04 20:07 50.03812 8.51056 331 ft 23 kts 69°
2026-05-04 20:07 50.03871 8.51301 331 ft 25 kts 70°
2026-05-04 20:07 50.03936 8.51571 335 ft 28 kts 69°
2026-05-04 20:07 50.04001 8.51846 336 ft 27 kts 70°
2026-05-04 20:08 50.04064 8.52110 341 ft 26 kts 70°
2026-05-04 20:08 50.04126 8.52364 353 ft 25 kts 69°
2026-05-04 20:08 50.04184 8.52608 357 ft 24 kts 70°
2026-05-04 20:08 50.04243 8.52856 359 ft 25 kts 70°
2026-05-04 20:09 50.04305 8.53112 362 ft 25 kts 70°
2026-05-04 20:09 50.04363 8.53357 370 ft 23 kts 69°
2026-05-04 20:09 50.04399 8.53582 375 ft 21 kts 84°
2026-05-04 20:09 50.04414 8.53806 375 ft 21 kts 84°
2026-05-04 20:10 50.04429 8.54021 375 ft 19 kts 84°
2026-05-04 20:10 50.04442 8.54218 375 ft 18 kts 83°
2026-05-04 20:10 50.04454 8.54407 372 ft 18 kts 86°
2026-05-04 20:10 50.04423 8.54612 369 ft 20 kts 118°
2026-05-04 20:11 50.04332 8.54757 361 ft 20 kts 148°
2026-05-04 20:11 50.04197 8.54837 354 ft 18 kts 160°
2026-05-04 20:11 50.04085 8.54901 352 ft 16 kts 159°
2026-05-04 20:11 50.03992 8.54955 355 ft 12 kts 159°
2026-05-04 20:12 50.03914 8.55002 355 ft 12 kts 160°
2026-05-04 20:12 50.03849 8.55067 356 ft 10 kts 110°
2026-05-04 20:12 50.03860 8.55162 352 ft 8 kts 71°
2026-05-04 20:12 50.03876 8.55230 352 ft 6 kts 69°
2026-05-04 20:13 50.03892 8.55296 355 ft 7 kts 70°
2026-05-04 20:13 50.03911 8.55374 358 ft 9 kts 69°
2026-05-04 20:13 50.03935 8.55477 350 ft 11 kts 70°
2026-05-04 20:13 50.03963 8.55593 354 ft 11 kts 70°
2026-05-04 20:14 50.03974 8.55640 354 ft 1 kts 70°
2026-05-04 20:14 50.03975 8.55642 353 ft 0 kts 70°
2026-05-04 20:14 50.03975 8.55643 353 ft 0 kts 70°
2026-05-04 20:15 50.03980 8.55665 350 ft 4 kts 69°
2026-05-04 20:15 50.03989 8.55702 352 ft 3 kts 70°
2026-05-04 20:15 50.03993 8.55717 350 ft 0 kts 70°
2026-05-04 20:15 50.03994 8.55722 354 ft 2 kts 70°
2026-05-04 20:16 50.04001 8.55753 355 ft 4 kts 70°
2026-05-04 20:16 50.04015 8.55811 357 ft 6 kts 69°
2026-05-04 20:16 50.04028 8.55864 358 ft 4 kts 69°
2026-05-04 20:16 50.04034 8.55890 353 ft 0 kts 70°
2026-05-04 20:19 50.04035 8.55893 353 ft 1 kts 70°
2026-05-04 20:19 50.04040 8.55917 354 ft 4 kts 71°
2026-05-04 20:20 50.04062 8.55964 356 ft 6 kts 35°
2026-05-04 20:20 50.04106 8.55963 359 ft 7 kts 341°
2026-05-04 20:20 50.04171 8.55926 356 ft 12 kts 339°
2026-05-04 20:20 50.04255 8.55955 361 ft 14 kts 27°
2026-05-04 20:21 50.04348 8.55926 360 ft 15 kts 340°
2026-05-04 20:21 50.04423 8.55999 359 ft 15 kts 68°
2026-05-04 20:21 50.04486 8.56256 363 ft 10 kts 69°
2026-05-04 20:22 50.04508 8.56305 363 ft 3 kts 14°
2026-05-04 20:22 50.04524 8.56300 356 ft 4 kts 342°
2026-05-04 20:22 50.04556 8.56299 360 ft 3 kts 31°
2026-05-04 20:22 50.04562 8.56307 358 ft 0 kts 39°